Time,TemperatureF,DewpointF,PressureIn,WindDirection,WindDirectionDegrees,WindSpeedMPH,WindSpeedGustMPH,Humidity,HourlyPrecipIn,Conditions,Clouds,dailyrainin,SoftwareType,DateUTC
2013-02-23 00:00:00,30.3,28.3,29.90,SW,217,6.0,10.0,92,0.00,,---,0.00,VWS V14.01,2013-02-23 05:00:00,
2013-02-23 00:05:00,30.2,28.2,29.90,SW,218,6.0,8.0,92,0.00,,---,0.00,VWS V14.01,2013-02-23 05:05:00,
2013-02-23 00:10:00,30.2,28.2,29.90,SW,219,6.0,9.0,92,0.00,,---,0.00,VWS V14.01,2013-02-23 05:10:00,
2013-02-23 00:15:00,30.1,28.1,29.90,SW,223,7.0,11.0,92,0.00,,---,0.00,VWS V14.01,2013-02-23 05:15:00,
2013-02-23 00:20:00,30.2,28.2,29.90,SW,220,7.0,11.0,92,0.00,,---,0.00,VWS V14.01,2013-02-23 05:20:00,
2013-02-23 00:25:00,30.1,28.1,29.90,SW,215,8.0,10.0,92,0.00,,---,0.00,VWS V14.01,2013-02-23 05:25:00,
2013-02-23 00:30:00,30.1,28.1,29.89,SSW,202,9.0,11.0,92,0.00,,---,0.00,VWS V14.01,2013-02-23 05:30:00,
2013-02-23 00:35:00,30.0,28.0,29.89,SSW,196,5.0,8.0,92,0.00,,---,0.00,VWS V14.01,2013-02-23 05:35:00,
2013-02-23 00:40:00,30.0,28.0,29.90,SSW,197,7.0,10.0,92,0.00,,---,0.00,VWS V14.01,2013-02-23 05:40:00,
2013-02-23 00:45:00,30.0,28.0,29.90,SSW,195,7.0,10.0,92,0.00,,---,0.00,VWS V14.01,2013-02-23 05:45:00,
2013-02-23 00:50:00,29.9,27.9,29.90,SSW,211,6.0,10.0,92,0.00,,---,0.00,VWS V14.01,2013-02-23 05:50:00,
2013-02-23 00:55:00,29.9,27.9,29.90,SSW,207,4.0,7.0,92,0.00,,---,0.00,VWS V14.01,2013-02-23 05:55:00,
2013-02-23 01:00:00,29.9,27.9,29.90,SSW,196,6.0,9.0,92,0.00,,---,0.00,VWS V14.01,2013-02-23 06:00:00,
2013-02-23 01:05:00,29.9,27.9,29.89,SSW,194,9.0,11.0,92,0.00,,---,0.00,VWS V14.01,2013-02-23 06:05:00,
2013-02-23 01:10:00,29.9,27.9,29.90,SW,217,5.0,8.0,92,0.00,,---,0.00,VWS V14.01,2013-02-23 06:10:00,
2013-02-23 01:15:00,29.9,27.9,29.89,SSW,195,5.0,8.0,92,0.00,,---,0.00,VWS V14.01,2013-02-23 06:15:00,
2013-02-23 01:21:00,29.8,27.8,29.89,SSW,202,6.0,10.0,92,0.00,,---,0.00,VWS V14.01,2013-02-23 06:21:00,
2013-02-23 01:26:00,29.8,27.8,29.89,SSW,207,8.0,12.0,92,0.00,,---,0.00,VWS V14.01,2013-02-23 06:26:00,
2013-02-23 01:31:00,29.8,27.8,29.89,SSW,204,12.0,12.0,92,0.00,,---,0.00,VWS V14.01,2013-02-23 06:31:00,
2013-02-23 01:36:00,29.8,27.8,29.89,SSW,200,7.0,13.0,92,0.00,,---,0.00,VWS V14.01,2013-02-23 06:36:00,
2013-02-23 01:41:00,29.7,27.7,29.89,SSW,194,8.0,12.0,92,0.00,,---,0.00,VWS V14.01,2013-02-23 06:41:00,
2013-02-23 01:46:00,29.7,27.7,29.89,SSW,207,9.0,14.0,92,0.00,,---,0.00,VWS V14.01,2013-02-23 06:46:00,
2013-02-23 01:51:00,29.7,27.7,29.89,SSW,198,8.0,13.0,92,0.00,,---,0.00,VWS V14.01,2013-02-23 06:51:00,
2013-02-23 01:56:00,29.6,27.6,29.89,South,189,5.0,15.0,92,0.00,,---,0.00,VWS V14.01,2013-02-23 06:56:00,
2013-02-23 02:01:00,29.6,27.6,29.89,SSW,207,7.0,9.0,92,0.00,,---,0.00,VWS V14.01,2013-02-23 07:01:00,
2013-02-23 02:06:00,29.6,27.6,29.89,SW,215,8.0,13.0,92,0.00,,---,0.00,VWS V14.01,2013-02-23 07:06:00,
2013-02-23 02:11:00,29.6,27.6,29.89,SSW,206,8.0,12.0,92,0.00,,---,0.00,VWS V14.01,2013-02-23 07:11:00,
2013-02-23 02:16:00,29.5,27.5,29.89,SSW,199,9.0,14.0,92,0.00,,---,0.00,VWS V14.01,2013-02-23 07:16:00,
2013-02-23 02:21:00,29.5,27.5,29.89,South,188,5.0,10.0,92,0.00,,---,0.00,VWS V14.01,2013-02-23 07:21:00,
2013-02-23 02:26:00,29.5,27.5,29.89,SSW,200,7.0,11.0,92,0.00,,---,0.00,VWS V14.01,2013-02-23 07:26:00,
2013-02-23 02:31:00,29.4,27.4,29.88,SSW,194,7.0,10.0,92,0.00,,---,0.00,VWS V14.01,2013-02-23 07:31:00,
2013-02-23 02:36:00,29.4,27.4,29.88,SSW,193,7.0,11.0,92,0.00,,---,0.00,VWS V14.01,2013-02-23 07:36:00,
2013-02-23 02:41:00,29.4,27.4,29.88,South,187,5.0,11.0,92,0.00,,---,0.00,VWS V14.01,2013-02-23 07:41:00,
2013-02-23 02:46:00,29.3,27.3,29.88,SSW,200,10.0,14.0,92,0.00,,---,0.00,VWS V14.01,2013-02-23 07:46:00,
2013-02-23 02:51:00,29.3,27.3,29.88,South,188,7.0,10.0,92,0.00,,---,0.00,VWS V14.01,2013-02-23 07:51:00,
2013-02-23 02:56:00,29.3,27.3,29.88,SSW,209,9.0,13.0,92,0.00,,---,0.00,VWS V14.01,2013-02-23 07:56:00,
2013-02-23 03:01:00,29.2,27.2,29.88,SSW,207,10.0,10.0,92,0.00,,---,0.00,VWS V14.01,2013-02-23 08:01:00,
2013-02-23 03:06:00,29.2,27.2,29.88,SSW,209,8.0,13.0,92,0.00,,---,0.00,VWS V14.01,2013-02-23 08:06:00,
2013-02-23 03:11:00,29.2,27.2,29.88,SSW,202,9.0,14.0,92,0.00,,---,0.00,VWS V14.01,2013-02-23 08:11:00,
2013-02-23 03:16:00,29.2,27.2,29.88,South,184,10.0,12.0,92,0.00,,---,0.00,VWS V14.01,2013-02-23 08:16:00,
2013-02-23 03:21:00,29.2,27.2,29.87,SSW,202,9.0,13.0,92,0.00,,---,0.00,VWS V14.01,2013-02-23 08:21:00,
2013-02-23 03:26:00,29.2,27.2,29.87,SSW,192,8.0,11.0,92,0.00,,---,0.00,VWS V14.01,2013-02-23 08:26:00,
2013-02-23 03:31:00,29.1,27.1,29.87,SSW,205,10.0,14.0,92,0.00,,---,0.00,VWS V14.01,2013-02-23 08:31:00,
2013-02-23 03:36:00,29.1,27.1,29.87,South,184,8.0,13.0,92,0.00,,---,0.00,VWS V14.01,2013-02-23 08:36:00,
2013-02-23 03:41:00,29.1,27.1,29.87,SSW,211,12.0,13.0,92,0.00,,---,0.00,VWS V14.01,2013-02-23 08:41:00,
2013-02-23 03:46:00,29.1,27.1,29.87,SSW,207,9.0,13.0,92,0.00,,---,0.00,VWS V14.01,2013-02-23 08:46:00,
2013-02-23 03:51:00,29.0,27.0,29.87,SSW,213,5.0,11.0,92,0.00,,---,0.00,VWS V14.01,2013-02-23 08:51:00,
2013-02-23 03:56:00,29.0,27.0,29.87,South,179,11.0,13.0,92,0.00,,---,0.00,VWS V14.01,2013-02-23 08:56:00,
2013-02-23 04:01:00,29.0,27.0,29.87,South,175,8.0,12.0,92,0.00,,---,0.00,VWS V14.01,2013-02-23 09:01:00,
2013-02-23 04:06:00,28.9,26.9,29.87,SSW,200,9.0,10.0,92,0.00,,---,0.00,VWS V14.01,2013-02-23 09:06:00,
2013-02-23 04:11:00,28.9,26.9,29.87,SSW,194,7.0,14.0,92,0.00,,---,0.00,VWS V14.01,2013-02-23 09:11:00,
2013-02-23 04:16:00,28.8,26.8,29.87,SSW,205,7.0,14.0,92,0.00,,---,0.00,VWS V14.01,2013-02-23 09:16:00,
2013-02-23 04:21:00,28.8,26.8,29.87,South,183,8.0,15.0,92,0.00,,---,0.00,VWS V14.01,2013-02-23 09:21:00,
2013-02-23 04:26:00,28.7,26.7,29.87,SSW,205,8.0,12.0,92,0.00,,---,0.00,VWS V14.01,2013-02-23 09:26:00,
2013-02-23 04:31:00,28.7,26.7,29.87,SSW,200,9.0,12.0,92,0.00,,---,0.00,VWS V14.01,2013-02-23 09:31:00,
2013-02-23 04:36:00,28.7,26.7,29.88,SSW,200,7.0,12.0,92,0.00,,---,0.00,VWS V14.01,2013-02-23 09:36:00,
2013-02-23 04:41:00,28.6,26.6,29.87,SSW,211,9.0,14.0,92,0.00,,---,0.00,VWS V14.01,2013-02-23 09:41:00,
2013-02-23 04:46:00,28.6,26.6,29.87,SSW,203,7.0,14.0,92,0.00,,---,0.00,VWS V14.01,2013-02-23 09:46:00,
2013-02-23 04:51:00,28.6,26.6,29.87,SSW,196,11.0,13.0,92,0.00,,---,0.00,VWS V14.01,2013-02-23 09:51:00,
2013-02-23 04:56:00,28.6,26.6,29.87,SSW,192,8.0,14.0,92,0.00,,---,0.00,VWS V14.01,2013-02-23 09:56:00,
2013-02-23 05:01:00,28.6,26.6,29.87,SSW,200,6.0,11.0,92,0.00,,---,0.00,VWS V14.01,2013-02-23 10:01:00,
2013-02-23 05:06:00,28.5,26.5,29.87,SSW,197,8.0,14.0,92,0.00,,---,0.00,VWS V14.01,2013-02-23 10:06:00,
2013-02-23 05:11:00,28.5,26.5,29.87,SSW,198,7.0,12.0,92,0.00,,---,0.00,VWS V14.01,2013-02-23 10:11:00,
2013-02-23 05:16:00,28.5,26.5,29.88,SSW,213,10.0,13.0,92,0.00,,---,0.00,VWS V14.01,2013-02-23 10:16:00,
2013-02-23 05:21:00,28.5,26.5,29.88,SSW,209,8.0,11.0,92,0.00,,---,0.00,VWS V14.01,2013-02-23 10:21:00,
2013-02-23 05:26:00,28.5,26.5,29.88,SSW,198,7.0,12.0,92,0.00,,---,0.00,VWS V14.01,2013-02-23 10:26:00,
2013-02-23 05:31:00,28.6,26.6,29.88,South,188,9.0,11.0,92,0.00,,---,0.00,VWS V14.01,2013-02-23 10:31:00,
2013-02-23 05:36:00,28.5,26.5,29.88,SW,226,8.0,14.0,92,0.00,,---,0.00,VWS V14.01,2013-02-23 10:36:00,
2013-02-23 05:41:00,28.5,26.5,29.88,SSW,206,8.0,13.0,92,0.00,,---,0.00,VWS V14.01,2013-02-23 10:41:00,
2013-02-23 05:46:00,28.5,26.5,29.88,SSW,206,10.0,15.0,92,0.00,,---,0.00,VWS V14.01,2013-02-23 10:46:00,
2013-02-23 05:51:00,28.5,26.5,29.88,SSW,193,8.0,13.0,92,0.00,,---,0.00,VWS V14.01,2013-02-23 10:51:00,
2013-02-23 05:56:00,28.5,26.5,29.88,South,179,11.0,14.0,92,0.00,,---,0.00,VWS V14.01,2013-02-23 10:56:00,
2013-02-23 06:01:00,28.5,26.5,29.88,SSW,197,7.0,12.0,92,0.00,,---,0.00,VWS V14.01,2013-02-23 11:01:00,
2013-02-23 06:06:00,28.4,26.4,29.88,SSW,196,6.0,14.0,92,0.00,,---,0.00,VWS V14.01,2013-02-23 11:06:00,
2013-02-23 06:11:00,28.4,26.4,29.88,SSW,198,8.0,11.0,92,0.00,,---,0.00,VWS V14.01,2013-02-23 11:11:00,
2013-02-23 06:16:00,28.4,26.4,29.88,SSW,204,10.0,12.0,92,0.00,,---,0.00,VWS V14.01,2013-02-23 11:16:00,
2013-02-23 06:21:00,28.4,26.4,29.88,SSW,210,6.0,12.0,92,0.00,,---,0.00,VWS V14.01,2013-02-23 11:21:00,
2013-02-23 06:26:00,28.3,26.3,29.88,SSW,206,8.0,14.0,92,0.00,,---,0.00,VWS V14.01,2013-02-23 11:26:00,
2013-02-23 06:31:00,28.3,26.3,29.88,SW,216,8.0,9.0,92,0.00,,---,0.00,VWS V14.01,2013-02-23 11:31:00,
2013-02-23 06:37:00,28.3,26.3,29.88,SSW,203,7.0,11.0,92,0.00,,---,0.00,VWS V14.01,2013-02-23 11:37:00,
2013-02-23 06:42:00,28.2,26.2,29.89,SSW,198,6.0,10.0,92,0.00,,---,0.00,VWS V14.01,2013-02-23 11:42:00,
2013-02-23 06:47:00,28.2,26.2,29.89,SSW,204,7.0,13.0,92,0.00,,---,0.00,VWS V14.01,2013-02-23 11:47:00,
2013-02-23 06:52:00,28.2,26.2,29.89,SSW,200,9.0,10.0,92,0.00,,---,0.00,VWS V14.01,2013-02-23 11:52:00,
2013-02-23 06:57:00,28.2,26.2,29.89,SSW,209,14.0,14.0,92,0.00,,---,0.00,VWS V14.01,2013-02-23 11:57:00,
2013-02-23 07:02:00,28.1,26.1,29.89,SSW,192,6.0,11.0,92,0.00,,---,0.00,VWS V14.01,2013-02-23 12:02:00,
2013-02-23 07:07:00,28.1,26.1,29.89,SSW,209,8.0,10.0,92,0.00,,---,0.00,VWS V14.01,2013-02-23 12:07:00,
2013-02-23 07:12:00,28.1,26.1,29.90,SSW,192,7.0,12.0,92,0.00,,---,0.00,VWS V14.01,2013-02-23 12:12:00,
2013-02-23 07:17:00,28.1,26.1,29.89,SSW,209,7.0,15.0,92,0.00,,---,0.00,VWS V14.01,2013-02-23 12:17:00,
2013-02-23 07:22:00,28.1,26.1,29.90,SSW,199,7.0,12.0,92,0.00,,---,0.00,VWS V14.01,2013-02-23 12:22:00,
2013-02-23 07:27:00,28.1,26.1,29.90,SSW,211,9.0,13.0,92,0.00,,---,0.00,VWS V14.01,2013-02-23 12:27:00,
2013-02-23 07:32:00,28.1,26.1,29.90,SSW,198,6.0,14.0,92,0.00,,---,0.00,VWS V14.01,2013-02-23 12:32:00,
2013-02-23 07:37:00,28.0,26.0,29.90,South,188,5.0,11.0,92,0.00,,---,0.00,VWS V14.01,2013-02-23 12:37:00,
2013-02-23 07:42:00,28.0,26.2,29.90,SSW,192,6.0,10.0,93,0.00,,---,0.00,VWS V14.01,2013-02-23 12:42:00,
2013-02-23 07:47:00,28.0,26.2,29.90,SW,220,8.0,13.0,93,0.00,,---,0.00,VWS V14.01,2013-02-23 12:47:00,
2013-02-23 07:52:00,28.0,26.2,29.90,SSW,209,7.0,10.0,93,0.00,,---,0.00,VWS V14.01,2013-02-23 12:52:00,
2013-02-23 07:57:00,28.0,26.2,29.90,SSW,198,9.0,10.0,93,0.00,,---,0.00,VWS V14.01,2013-02-23 12:57:00,
2013-02-23 08:01:00,27.9,26.1,29.90,South,186,8.0,13.0,93,0.00,,---,0.00,VWS V14.01,2013-02-23 13:01:00,
2013-02-23 08:06:00,27.9,26.1,29.90,SSW,212,10.0,10.0,93,0.00,,---,0.00,VWS V14.01,2013-02-23 13:06:00,
2013-02-23 08:11:00,27.9,26.1,29.90,SSW,200,8.0,10.0,93,0.00,,---,0.00,VWS V14.01,2013-02-23 13:11:00,
2013-02-23 08:16:00,27.8,26.0,29.90,SSW,209,7.0,12.0,93,0.00,,---,0.00,VWS V14.01,2013-02-23 13:16:00,
2013-02-23 08:21:00,27.8,26.0,29.90,SW,217,8.0,11.0,93,0.00,,---,0.00,VWS V14.01,2013-02-23 13:21:00,
2013-02-23 08:26:00,27.8,26.0,29.91,SSW,196,8.0,13.0,93,0.00,,---,0.00,VWS V14.01,2013-02-23 13:26:00,
2013-02-23 08:31:00,27.8,26.3,29.91,SW,215,10.0,12.0,94,0.00,,---,0.00,VWS V14.01,2013-02-23 13:31:00,
2013-02-23 08:37:00,27.8,26.3,29.91,SSW,200,8.0,11.0,94,0.00,,---,0.00,VWS V14.01,2013-02-23 13:37:00,
2013-02-23 08:42:00,27.7,26.2,29.90,SSW,206,6.0,11.0,94,0.00,,---,0.00,VWS V14.01,2013-02-23 13:42:00,
2013-02-23 08:47:00,27.7,26.2,29.90,SW,217,8.0,10.0,94,0.00,,---,0.00,VWS V14.01,2013-02-23 13:47:00,
2013-02-23 08:52:00,27.7,26.2,29.91,SSW,205,7.0,8.0,94,0.00,,---,0.00,VWS V14.01,2013-02-23 13:52:00,
2013-02-23 08:57:00,27.8,26.3,29.91,SSW,202,7.0,9.0,94,0.00,,---,0.00,VWS V14.01,2013-02-23 13:57:00,
2013-02-23 09:02:00,27.8,26.3,29.91,SW,221,8.0,12.0,94,0.00,,---,0.00,VWS V14.01,2013-02-23 14:02:00,
2013-02-23 09:07:00,27.9,26.4,29.91,SSW,196,7.0,12.0,94,0.00,,---,0.00,VWS V14.01,2013-02-23 14:07:00,
2013-02-23 09:12:00,28.0,26.5,29.90,SSW,196,8.0,9.0,94,0.00,,---,0.00,VWS V14.01,2013-02-23 14:12:00,
2013-02-23 09:17:00,28.0,26.5,29.90,South,179,6.0,10.0,94,0.00,,---,0.00,VWS V14.01,2013-02-23 14:17:00,
2013-02-23 09:22:00,28.1,26.6,29.90,SSW,194,9.0,10.0,94,0.00,,---,0.00,VWS V14.01,2013-02-23 14:22:00,
2013-02-23 09:27:00,28.3,26.8,29.90,SSW,195,7.0,10.0,94,0.00,,---,0.00,VWS V14.01,2013-02-23 14:27:00,
2013-02-23 09:32:00,28.4,26.9,29.90,South,190,8.0,9.0,94,0.00,,---,0.00,VWS V14.01,2013-02-23 14:32:00,
2013-02-23 09:37:00,28.5,27.0,29.90,SSW,205,7.0,9.0,94,0.00,,---,0.00,VWS V14.01,2013-02-23 14:37:00,
2013-02-23 09:42:00,28.6,27.1,29.90,SSW,194,9.0,10.0,94,0.00,,---,0.00,VWS V14.01,2013-02-23 14:42:00,
2013-02-23 09:47:00,28.5,27.0,29.90,SSW,211,6.0,10.0,94,0.00,,---,0.00,VWS V14.01,2013-02-23 14:47:00,
2013-02-23 09:52:00,28.5,27.0,29.90,SSE,159,8.0,10.0,94,0.00,,---,0.00,VWS V14.01,2013-02-23 14:52:00,
2013-02-23 09:57:00,28.5,27.0,29.90,SW,224,11.0,11.0,94,0.00,,---,0.00,VWS V14.01,2013-02-23 14:57:00,
2013-02-23 10:02:00,28.6,26.8,29.89,SSW,202,7.0,10.0,93,0.00,,---,0.00,VWS V14.01,2013-02-23 15:02:00,
2013-02-23 10:07:00,28.7,26.9,29.89,SSW,197,9.0,11.0,93,0.00,,---,0.00,VWS V14.01,2013-02-23 15:07:00,
2013-02-23 10:12:00,28.8,27.0,29.89,SSW,204,7.0,9.0,93,0.00,,---,0.00,VWS V14.01,2013-02-23 15:12:00,
2013-02-23 10:17:00,28.9,27.1,29.90,SSW,206,7.0,11.0,93,0.00,,---,0.00,VWS V14.01,2013-02-23 15:17:00,
2013-02-23 10:21:00,29.2,27.4,29.89,SSW,211,7.0,11.0,93,0.00,,---,0.00,VWS V14.01,2013-02-23 15:21:00,
2013-02-23 10:27:00,29.4,27.4,29.90,SSW,200,7.0,9.0,92,0.00,,---,0.00,VWS V14.01,2013-02-23 15:27:00,
2013-02-23 10:32:00,29.3,27.3,29.90,SSW,211,8.0,10.0,92,0.00,,---,0.00,VWS V14.01,2013-02-23 15:32:00,
2013-02-23 10:37:00,29.1,27.1,29.90,SSW,213,6.0,9.0,92,0.00,,---,0.00,VWS V14.01,2013-02-23 15:37:00,
2013-02-23 10:42:00,28.9,26.9,29.90,SW,226,7.0,10.0,92,0.00,,---,0.00,VWS V14.01,2013-02-23 15:42:00,
2013-02-23 10:47:00,29.0,27.0,29.90,SSW,199,8.0,11.0,92,0.00,,---,0.00,VWS V14.01,2013-02-23 15:47:00,
2013-02-23 10:52:00,29.1,27.1,29.90,SW,223,6.0,8.0,92,0.00,,---,0.00,VWS V14.01,2013-02-23 15:52:00,
2013-02-23 10:57:00,29.4,27.4,29.90,SSW,202,7.0,9.0,92,0.00,,---,0.00,VWS V14.01,2013-02-23 15:57:00,
2013-02-23 11:02:00,29.6,27.6,29.90,SSW,195,9.0,14.0,92,0.00,,---,0.00,VWS V14.01,2013-02-23 16:02:00,
2013-02-23 11:07:00,29.7,27.4,29.91,SW,217,6.0,8.0,91,0.00,,---,0.00,VWS V14.01,2013-02-23 16:07:00,
2013-02-23 11:12:00,29.6,26.8,29.90,SW,233,13.0,17.0,89,0.00,,---,0.00,VWS V14.01,2013-02-23 16:12:00,
2013-02-23 11:17:00,29.4,26.3,29.90,WSW,238,7.0,14.0,88,0.00,,---,0.00,VWS V14.01,2013-02-23 16:17:00,
2013-02-23 11:22:00,29.3,25.9,29.91,WSW,240,12.0,16.0,87,0.00,,---,0.00,VWS V14.01,2013-02-23 16:22:00,
2013-02-23 11:27:00,29.3,25.9,29.91,WSW,243,17.0,19.0,87,0.00,,---,0.00,VWS V14.01,2013-02-23 16:27:00,
2013-02-23 11:32:00,29.1,25.4,29.91,SW,236,12.0,17.0,86,0.00,,---,0.00,VWS V14.01,2013-02-23 16:32:00,
2013-02-23 11:37:00,29.0,25.4,29.91,WSW,238,11.0,17.0,86,0.00,,---,0.00,VWS V14.01,2013-02-23 16:37:00,
2013-02-23 11:42:00,29.0,25.4,29.91,WSW,246,12.0,16.0,86,0.00,,---,0.00,VWS V14.01,2013-02-23 16:42:00,
2013-02-23 11:47:00,29.0,25.4,29.91,SW,222,10.0,19.0,86,0.00,,---,0.00,VWS V14.01,2013-02-23 16:47:00,
2013-02-23 11:52:00,29.0,25.1,29.91,SW,236,13.0,19.0,85,0.00,,---,0.00,VWS V14.01,2013-02-23 16:52:00,
2013-02-23 11:57:00,29.0,25.1,29.91,SW,232,12.0,17.0,85,0.00,,---,0.00,VWS V14.01,2013-02-23 16:57:00,
2013-02-23 12:02:00,28.9,25.0,29.91,WSW,240,15.0,18.0,85,0.00,,---,0.00,VWS V14.01,2013-02-23 17:02:00,
2013-02-23 12:07:00,28.8,24.9,29.91,SW,236,14.0,21.0,85,0.00,,---,0.00,VWS V14.01,2013-02-23 17:07:00,
2013-02-23 12:12:00,28.7,25.0,29.91,SW,231,11.0,17.0,86,0.00,,---,0.00,VWS V14.01,2013-02-23 17:12:00,
2013-02-23 12:17:00,28.7,25.3,29.91,SW,230,14.0,16.0,87,0.00,,---,0.00,VWS V14.01,2013-02-23 17:17:00,
2013-02-23 12:22:00,28.6,25.2,29.91,SW,222,9.0,14.0,87,0.00,,---,0.00,VWS V14.01,2013-02-23 17:22:00,
2013-02-23 12:27:00,28.7,25.3,29.92,WSW,241,12.0,18.0,87,0.00,,---,0.00,VWS V14.01,2013-02-23 17:27:00,
2013-02-23 12:32:00,28.6,25.0,29.91,WSW,244,12.0,15.0,86,0.00,,---,0.00,VWS V14.01,2013-02-23 17:32:00,
2013-02-23 12:37:00,28.5,24.9,29.91,WSW,247,14.0,15.0,86,0.00,,---,0.00,VWS V14.01,2013-02-23 17:37:00,
2013-02-23 12:42:00,28.5,24.9,29.91,WSW,243,19.0,20.0,86,0.00,,---,0.00,VWS V14.01,2013-02-23 17:42:00,
2013-02-23 12:47:00,28.4,24.8,29.91,SW,232,14.0,20.0,86,0.00,,---,0.00,VWS V14.01,2013-02-23 17:47:00,
2013-02-23 12:52:00,28.4,24.8,29.91,WSW,243,17.0,17.0,86,0.00,,---,0.00,VWS V14.01,2013-02-23 17:52:00,
2013-02-23 12:57:00,28.3,24.7,29.91,WSW,244,14.0,19.0,86,0.00,,---,0.00,VWS V14.01,2013-02-23 17:57:00,
2013-02-23 13:02:00,28.1,24.5,29.91,SW,231,14.0,16.0,86,0.00,,---,0.00,VWS V14.01,2013-02-23 18:02:00,
2013-02-23 13:07:00,28.1,24.7,29.91,WSW,250,11.0,12.0,87,0.00,,---,0.00,VWS V14.01,2013-02-23 18:07:00,
2013-02-23 13:12:00,28.1,24.7,29.91,SW,229,10.0,14.0,87,0.00,,---,0.00,VWS V14.01,2013-02-23 18:12:00,
2013-02-23 13:17:00,28.1,24.5,29.91,SW,229,14.0,16.0,86,0.00,,---,0.00,VWS V14.01,2013-02-23 18:17:00,
2013-02-23 13:22:00,28.1,24.5,29.90,WSW,241,14.0,15.0,86,0.00,,---,0.00,VWS V14.01,2013-02-23 18:22:00,
2013-02-23 13:27:00,28.0,24.4,29.90,WSW,247,13.0,15.0,86,0.00,,---,0.00,VWS V14.01,2013-02-23 18:27:00,
2013-02-23 13:32:00,28.0,24.1,29.90,SW,233,13.0,18.0,85,0.00,,---,0.00,VWS V14.01,2013-02-23 18:32:00,
2013-02-23 13:37:00,28.0,24.1,29.90,WSW,242,15.0,17.0,85,0.00,,---,0.00,VWS V14.01,2013-02-23 18:37:00,
2013-02-23 13:42:00,27.9,24.0,29.90,WSW,243,11.0,17.0,85,0.00,,---,0.00,VWS V14.01,2013-02-23 18:42:00,
2013-02-23 13:47:00,27.9,24.0,29.90,WSW,248,11.0,16.0,85,0.00,,---,0.00,VWS V14.01,2013-02-23 18:47:00,
2013-02-23 13:52:00,27.8,24.2,29.90,WSW,240,11.0,12.0,86,0.00,,---,0.00,VWS V14.01,2013-02-23 18:52:00,
2013-02-23 13:57:00,27.7,24.1,29.90,WSW,247,10.0,16.0,86,0.00,,---,0.00,VWS V14.01,2013-02-23 18:57:00,
2013-02-23 14:02:00,27.6,24.0,29.90,SW,234,11.0,16.0,86,0.00,,---,0.00,VWS V14.01,2013-02-23 19:02:00,
2013-02-23 14:07:00,27.6,24.0,29.90,SW,232,11.0,15.0,86,0.00,,---,0.00,VWS V14.01,2013-02-23 19:07:00,
2013-02-23 14:12:00,27.6,24.0,29.90,WSW,247,8.0,12.0,86,0.00,,---,0.00,VWS V14.01,2013-02-23 19:12:00,
2013-02-23 14:17:00,27.5,23.9,29.90,WSW,239,10.0,15.0,86,0.00,,---,0.00,VWS V14.01,2013-02-23 19:17:00,
2013-02-23 14:22:00,27.5,23.9,29.90,SW,236,10.0,13.0,86,0.00,,---,0.00,VWS V14.01,2013-02-23 19:22:00,
2013-02-23 14:27:00,27.6,24.0,29.90,WSW,242,11.0,13.0,86,0.00,,---,0.00,VWS V14.01,2013-02-23 19:27:00,
2013-02-23 14:32:00,27.6,23.7,29.90,SW,229,9.0,14.0,85,0.00,,---,0.00,VWS V14.01,2013-02-23 19:32:00,
2013-02-23 14:37:00,27.7,23.8,29.90,SW,227,10.0,14.0,85,0.00,,---,0.00,VWS V14.01,2013-02-23 19:37:00,
2013-02-23 14:42:00,27.8,23.6,29.90,SW,233,14.0,14.0,84,0.00,,---,0.00,VWS V14.01,2013-02-23 19:42:00,
2013-02-23 14:47:00,27.7,23.5,29.89,SW,236,13.0,13.0,84,0.00,,---,0.00,VWS V14.01,2013-02-23 19:47:00,
2013-02-23 14:52:00,27.7,23.5,29.89,SW,236,11.0,13.0,84,0.00,,---,0.00,VWS V14.01,2013-02-23 19:52:00,
2013-02-23 14:57:00,27.7,23.8,29.89,SW,227,12.0,14.0,85,0.00,,---,0.00,VWS V14.01,2013-02-23 19:57:00,
2013-02-23 15:03:00,27.6,23.7,29.89,SW,229,10.0,12.0,85,0.00,,---,0.00,VWS V14.01,2013-02-23 20:03:00,
2013-02-23 15:08:00,27.7,23.8,29.89,SW,229,11.0,11.0,85,0.00,,---,0.00,VWS V14.01,2013-02-23 20:08:00,
2013-02-23 15:13:00,27.7,23.8,29.89,SW,220,10.0,14.0,85,0.00,,---,0.00,VWS V14.01,2013-02-23 20:13:00,
2013-02-23 15:18:00,27.6,23.7,29.89,WSW,238,11.0,13.0,85,0.00,,---,0.00,VWS V14.01,2013-02-23 20:18:00,
2013-02-23 15:23:00,27.6,23.7,29.89,SW,236,12.0,15.0,85,0.00,,---,0.00,VWS V14.01,2013-02-23 20:23:00,
2013-02-23 15:28:00,27.5,23.6,29.90,SW,215,12.0,15.0,85,0.00,,---,0.00,VWS V14.01,2013-02-23 20:28:00,
2013-02-23 15:33:00,27.5,23.6,29.90,SSW,207,12.0,15.0,85,0.00,,---,0.00,VWS V14.01,2013-02-23 20:33:00,
2013-02-23 15:38:00,27.5,23.6,29.90,WSW,238,10.0,12.0,85,0.00,,---,0.00,VWS V14.01,2013-02-23 20:38:00,
2013-02-23 15:43:00,27.6,23.7,29.90,SW,214,10.0,16.0,85,0.00,,---,0.00,VWS V14.01,2013-02-23 20:43:00,
2013-02-23 15:48:00,27.7,23.8,29.90,SW,219,7.0,11.0,85,0.00,,---,0.00,VWS V14.01,2013-02-23 20:48:00,
2013-02-23 15:53:00,27.8,23.9,29.90,SW,232,8.0,13.0,85,0.00,,---,0.00,VWS V14.01,2013-02-23 20:53:00,
2013-02-23 15:58:00,27.9,24.0,29.90,SW,215,7.0,10.0,85,0.00,,---,0.00,VWS V14.01,2013-02-23 20:58:00,
2013-02-23 16:03:00,28.0,24.1,29.90,SW,234,7.0,11.0,85,0.00,,---,0.00,VWS V14.01,2013-02-23 21:03:00,
2013-02-23 16:08:00,28.0,24.1,29.90,SW,234,9.0,12.0,85,0.00,,---,0.00,VWS V14.01,2013-02-23 21:08:00,
2013-02-23 16:13:00,27.9,24.0,29.90,SW,230,10.0,12.0,85,0.00,,---,0.00,VWS V14.01,2013-02-23 21:13:00,
2013-02-23 16:18:00,27.8,23.9,29.91,WSW,246,8.0,11.0,85,0.00,,---,0.00,VWS V14.01,2013-02-23 21:18:00,
2013-02-23 16:23:00,27.8,23.9,29.91,SW,234,10.0,12.0,85,0.00,,---,0.00,VWS V14.01,2013-02-23 21:23:00,
2013-02-23 16:28:00,27.6,24.0,29.91,SW,224,6.0,12.0,86,0.00,,---,0.00,VWS V14.01,2013-02-23 21:28:00,
2013-02-23 16:33:00,27.5,23.9,29.91,SW,234,6.0,11.0,86,0.00,,---,0.00,VWS V14.01,2013-02-23 21:33:00,
2013-02-23 16:38:00,27.5,23.9,29.91,SW,219,6.0,9.0,86,0.00,,---,0.00,VWS V14.01,2013-02-23 21:38:00,
2013-02-23 16:43:00,27.5,23.9,29.91,SSW,198,7.0,10.0,86,0.00,,---,0.00,VWS V14.01,2013-02-23 21:43:00,
2013-02-23 16:48:00,27.4,23.8,29.91,SW,219,6.0,11.0,86,0.00,,---,0.00,VWS V14.01,2013-02-23 21:48:00,
2013-02-23 16:53:00,27.4,24.0,29.91,SW,228,7.0,10.0,87,0.00,,---,0.00,VWS V14.01,2013-02-23 21:53:00,
2013-02-23 16:58:00,27.4,24.0,29.91,SSW,203,7.0,9.0,87,0.00,,---,0.00,VWS V14.01,2013-02-23 21:58:00,
2013-02-23 17:03:00,27.3,24.0,29.91,SSW,207,8.0,9.0,87,0.00,,---,0.00,VWS V14.01,2013-02-23 22:03:00,
2013-02-23 17:08:00,27.3,24.0,29.90,SW,214,5.0,8.0,87,0.00,,---,0.00,VWS V14.01,2013-02-23 22:08:00,
2013-02-23 17:13:00,27.2,24.1,29.90,SW,219,4.0,7.0,88,0.00,,---,0.00,VWS V14.01,2013-02-23 22:13:00,
2013-02-23 17:18:00,27.2,23.9,29.91,SSW,194,8.0,11.0,87,0.00,,---,0.00,VWS V14.01,2013-02-23 22:18:00,
2013-02-23 17:23:00,27.1,23.8,29.90,SW,236,7.0,8.0,87,0.00,,---,0.00,VWS V14.01,2013-02-23 22:23:00,
2013-02-23 17:28:00,27.1,23.8,29.91,SSW,206,7.0,11.0,87,0.00,,---,0.00,VWS V14.01,2013-02-23 22:28:00,
2013-02-23 17:33:00,27.0,23.6,29.91,SW,218,5.0,10.0,87,0.00,,---,0.00,VWS V14.01,2013-02-23 22:33:00,
2013-02-23 17:38:00,26.9,23.8,29.91,SW,227,7.0,10.0,88,0.00,,---,0.00,VWS V14.01,2013-02-23 22:38:00,
2013-02-23 17:43:00,26.8,23.7,29.92,SW,216,4.0,8.0,88,0.00,,---,0.00,VWS V14.01,2013-02-23 22:43:00,
2013-02-23 17:48:00,26.7,23.9,29.92,SW,218,8.0,11.0,89,0.00,,---,0.00,VWS V14.01,2013-02-23 22:48:00,
2013-02-23 17:53:00,26.7,23.9,29.92,SW,219,6.0,12.0,89,0.00,,---,0.00,VWS V14.01,2013-02-23 22:53:00,
2013-02-23 17:58:00,26.6,24.1,29.92,SW,222,5.0,8.0,90,0.00,,---,0.00,VWS V14.01,2013-02-23 22:58:00,
2013-02-23 18:03:00,26.5,24.0,29.92,SW,216,8.0,9.0,90,0.00,,---,0.00,VWS V14.01,2013-02-23 23:03:00,
2013-02-23 18:08:00,26.4,23.9,29.92,SSW,202,7.0,8.0,90,0.00,,---,0.00,VWS V14.01,2013-02-23 23:08:00,
2013-02-23 18:13:00,26.3,23.8,29.92,SSW,210,5.0,10.0,90,0.00,,---,0.00,VWS V14.01,2013-02-23 23:13:00,
2013-02-23 18:18:00,26.2,23.7,29.93,SW,217,6.0,8.0,90,0.00,,---,0.00,VWS V14.01,2013-02-23 23:18:00,
2013-02-23 18:23:00,26.1,23.8,29.92,SSW,200,5.0,7.0,91,0.00,,---,0.00,VWS V14.01,2013-02-23 23:23:00,
2013-02-23 18:28:00,26.0,23.7,29.92,SSW,202,3.0,7.0,91,0.00,,---,0.00,VWS V14.01,2013-02-23 23:28:00,
2013-02-23 18:33:00,26.0,23.7,29.93,SSW,202,5.0,7.0,91,0.00,,---,0.00,VWS V14.01,2013-02-23 23:33:00,
2013-02-23 18:38:00,25.9,23.6,29.93,SSW,204,5.0,7.0,91,0.00,,---,0.00,VWS V14.01,2013-02-23 23:38:00,
2013-02-23 18:43:00,25.8,23.5,29.92,SSW,207,6.0,8.0,91,0.00,,---,0.00,VWS V14.01,2013-02-23 23:43:00,
2013-02-23 18:48:00,25.8,23.5,29.93,SW,219,3.0,7.0,91,0.00,,---,0.00,VWS V14.01,2013-02-23 23:48:00,
2013-02-23 18:53:00,25.8,23.8,29.93,SW,218,3.0,8.0,92,0.00,,---,0.00,VWS V14.01,2013-02-23 23:53:00,
2013-02-23 18:58:00,25.7,23.7,29.93,South,186,6.0,7.0,92,0.00,,---,0.00,VWS V14.01,2013-02-23 23:58:00,
2013-02-23 19:03:00,25.7,23.4,29.93,SSW,205,5.0,7.0,91,0.00,,---,0.00,VWS V14.01,2013-02-24 00:03:00,
2013-02-23 19:08:00,25.6,23.3,29.93,SSW,202,5.0,8.0,91,0.00,,---,0.00,VWS V14.01,2013-02-24 00:08:00,
2013-02-23 19:13:00,25.6,23.6,29.93,SSW,212,6.0,8.0,92,0.00,,---,0.00,VWS V14.01,2013-02-24 00:13:00,
2013-02-23 19:18:00,25.6,23.6,29.93,South,190,6.0,8.0,92,0.00,,---,0.00,VWS V14.01,2013-02-24 00:18:00,
2013-02-23 19:23:00,25.5,23.5,29.93,SW,215,8.0,10.0,92,0.00,,---,0.00,VWS V14.01,2013-02-24 00:23:00,
2013-02-23 19:28:00,25.5,23.5,29.93,SSW,198,6.0,10.0,92,0.00,,---,0.00,VWS V14.01,2013-02-24 00:28:00,
2013-02-23 19:33:00,25.5,23.5,29.94,SSW,201,6.0,9.0,92,0.00,,---,0.00,VWS V14.01,2013-02-24 00:33:00,
2013-02-23 19:38:00,25.5,23.2,29.94,SSW,205,8.0,10.0,91,0.00,,---,0.00,VWS V14.01,2013-02-24 00:38:00,
2013-02-23 19:43:00,25.4,23.1,29.94,SSW,202,5.0,7.0,91,0.00,,---,0.00,VWS V14.01,2013-02-24 00:43:00,
2013-02-23 19:48:00,25.4,23.1,29.94,SSW,201,6.0,7.0,91,0.00,,---,0.00,VWS V14.01,2013-02-24 00:48:00,
2013-02-23 19:53:00,25.4,23.1,29.94,SSW,201,7.0,11.0,91,0.00,,---,0.00,VWS V14.01,2013-02-24 00:53:00,
2013-02-23 19:58:00,25.4,23.1,29.94,South,183,4.0,9.0,91,0.00,,---,0.00,VWS V14.01,2013-02-24 00:58:00,
2013-02-23 20:03:00,25.3,23.0,29.94,SSW,205,7.0,10.0,91,0.00,,---,0.00,VWS V14.01,2013-02-24 01:03:00,
2013-02-23 20:08:00,25.3,23.0,29.94,South,173,5.0,9.0,91,0.00,,---,0.00,VWS V14.01,2013-02-24 01:08:00,
2013-02-23 20:13:00,25.3,23.0,29.95,SW,214,7.0,8.0,91,0.00,,---,0.00,VWS V14.01,2013-02-24 01:13:00,
2013-02-23 20:18:00,25.3,23.0,29.94,SW,233,5.0,9.0,91,0.00,,---,0.00,VWS V14.01,2013-02-24 01:18:00,
2013-02-23 20:23:00,25.3,23.0,29.94,SSW,212,5.0,8.0,91,0.00,,---,0.00,VWS V14.01,2013-02-24 01:23:00,
2013-02-23 20:28:00,25.2,23.0,29.94,SW,216,3.0,8.0,91,0.00,,---,0.00,VWS V14.01,2013-02-24 01:28:00,
2013-02-23 20:33:00,25.2,23.0,29.95,South,190,4.0,7.0,91,0.00,,---,0.00,VWS V14.01,2013-02-24 01:33:00,
2013-02-23 20:38:00,25.2,23.0,29.95,SSW,213,5.0,9.0,91,0.00,,---,0.00,VWS V14.01,2013-02-24 01:38:00,
2013-02-23 20:43:00,25.2,23.0,29.94,SSW,207,5.0,11.0,91,0.00,,---,0.00,VWS V14.01,2013-02-24 01:43:00,
2013-02-23 20:48:00,25.2,23.0,29.94,South,182,6.0,8.0,91,0.00,,---,0.00,VWS V14.01,2013-02-24 01:48:00,
2013-02-23 20:53:00,25.2,23.0,29.95,SSW,199,4.0,6.0,91,0.00,,---,0.00,VWS V14.01,2013-02-24 01:53:00,
2013-02-23 20:58:00,25.2,23.0,29.94,SSW,206,4.0,8.0,91,0.00,,---,0.00,VWS V14.01,2013-02-24 01:58:00,
2013-02-23 21:03:00,25.2,22.7,29.94,SSW,203,4.0,8.0,90,0.00,,---,0.00,VWS V14.01,2013-02-24 02:03:00,
2013-02-23 21:08:00,25.2,22.7,29.94,South,189,6.0,8.0,90,0.00,,---,0.00,VWS V14.01,2013-02-24 02:08:00,
2013-02-23 21:13:00,25.2,22.7,29.94,SSW,207,6.0,7.0,90,0.00,,---,0.00,VWS V14.01,2013-02-24 02:13:00,
2013-02-23 21:18:00,25.2,22.7,29.95,SSW,204,5.0,8.0,90,0.00,,---,0.00,VWS V14.01,2013-02-24 02:18:00,
2013-02-23 21:23:00,25.1,22.6,29.94,SSW,202,8.0,8.0,90,0.00,,---,0.00,VWS V14.01,2013-02-24 02:23:00,
2013-02-23 21:28:00,25.1,22.6,29.94,SSW,211,4.0,10.0,90,0.00,,---,0.00,VWS V14.01,2013-02-24 02:28:00,
2013-02-23 21:33:00,25.2,22.7,29.95,SSW,194,6.0,10.0,90,0.00,,---,0.00,VWS V14.01,2013-02-24 02:33:00,
2013-02-23 21:38:00,25.2,22.7,29.94,SSW,196,7.0,10.0,90,0.00,,---,0.00,VWS V14.01,2013-02-24 02:38:00,
2013-02-23 21:43:00,25.2,22.4,29.94,South,182,10.0,12.0,89,0.00,,---,0.00,VWS V14.01,2013-02-24 02:43:00,
2013-02-23 21:48:00,25.2,22.4,29.94,SSW,213,4.0,9.0,89,0.00,,---,0.00,VWS V14.01,2013-02-24 02:48:00,
2013-02-23 21:53:00,25.3,22.5,29.94,SSW,193,5.0,9.0,89,0.00,,---,0.00,VWS V14.01,2013-02-24 02:53:00,
2013-02-23 21:58:00,25.3,22.5,29.94,SSW,206,5.0,11.0,89,0.00,,---,0.00,VWS V14.01,2013-02-24 02:58:00,
2013-02-23 22:03:00,25.3,22.5,29.94,SW,216,5.0,9.0,89,0.00,,---,0.00,VWS V14.01,2013-02-24 03:03:00,
2013-02-23 22:08:00,25.3,22.5,29.94,SSW,211,5.0,8.0,89,0.00,,---,0.00,VWS V14.01,2013-02-24 03:08:00,
2013-02-23 22:13:00,25.4,22.6,29.93,SSW,194,5.0,9.0,89,0.00,,---,0.00,VWS V14.01,2013-02-24 03:13:00,
2013-02-23 22:18:00,25.4,22.6,29.93,South,189,4.0,8.0,89,0.00,,---,0.00,VWS V14.01,2013-02-24 03:18:00,
2013-02-23 22:23:00,25.4,22.6,29.93,SSW,196,5.0,9.0,89,0.00,,---,0.00,VWS V14.01,2013-02-24 03:23:00,
2013-02-23 22:28:00,25.4,22.6,29.93,South,190,8.0,9.0,89,0.00,,---,0.00,VWS V14.01,2013-02-24 03:28:00,
2013-02-23 22:33:00,25.4,22.6,29.94,SSW,192,6.0,8.0,89,0.00,,---,0.00,VWS V14.01,2013-02-24 03:33:00,
2013-02-23 22:38:00,25.4,22.6,29.93,SSW,198,6.0,10.0,89,0.00,,---,0.00,VWS V14.01,2013-02-24 03:38:00,
2013-02-23 22:43:00,25.4,22.6,29.93,SSW,213,8.0,9.0,89,0.00,,---,0.00,VWS V14.01,2013-02-24 03:43:00,
2013-02-23 22:48:00,25.4,22.6,29.93,SSW,200,6.0,10.0,89,0.00,,---,0.00,VWS V14.01,2013-02-24 03:48:00,
2013-02-23 22:53:00,25.4,22.6,29.93,SW,221,4.0,10.0,89,0.00,,---,0.00,VWS V14.01,2013-02-24 03:53:00,
2013-02-23 22:58:00,25.4,22.6,29.93,SSW,213,4.0,10.0,89,0.00,,---,0.00,VWS V14.01,2013-02-24 03:58:00,
2013-02-23 23:03:00,25.3,22.8,29.93,SW,226,7.0,8.0,90,0.00,,---,0.00,VWS V14.01,2013-02-24 04:03:00,
2013-02-23 23:08:00,25.3,22.8,29.93,SSW,202,4.0,9.0,90,0.00,,---,0.00,VWS V14.01,2013-02-24 04:08:00,
2013-02-23 23:13:00,25.3,22.8,29.93,SSW,207,6.0,8.0,90,0.00,,---,0.00,VWS V14.01,2013-02-24 04:13:00,
2013-02-23 23:18:00,25.3,22.8,29.93,SSW,213,6.0,11.0,90,0.00,,---,0.00,VWS V14.01,2013-02-24 04:18:00,
2013-02-23 23:23:00,25.3,23.0,29.93,SW,223,6.0,10.0,91,0.00,,---,0.00,VWS V14.01,2013-02-24 04:23:00,
2013-02-23 23:28:00,25.2,22.7,29.93,SW,223,6.0,8.0,90,0.00,,---,0.00,VWS V14.01,2013-02-24 04:28:00,
2013-02-23 23:33:00,25.2,23.0,29.93,SSW,208,6.0,9.0,91,0.00,,---,0.00,VWS V14.01,2013-02-24 04:33:00,
2013-02-23 23:38:00,25.1,22.9,29.93,SW,223,8.0,9.0,91,0.00,,---,0.00,VWS V14.01,2013-02-24 04:38:00,
2013-02-23 23:43:00,25.1,22.9,29.92,SW,227,6.0,8.0,91,0.00,,---,0.00,VWS V14.01,2013-02-24 04:43:00,
2013-02-23 23:48:00,25.1,22.9,29.92,SSW,207,5.0,8.0,91,0.00,,---,0.00,VWS V14.01,2013-02-24 04:48:00,
2013-02-23 23:53:00,25.1,23.1,29.93,SW,215,7.0,9.0,92,0.00,,---,0.00,VWS V14.01,2013-02-24 04:53:00,
2013-02-23 23:58:00,25.1,23.1,29.93,SSW,209,5.0,8.0,92,0.00,,---,0.00,VWS V14.01,2013-02-24 04:58:00,